Wind_Speed
65 63 58 56 54 53 52 50 49 50 50 49 49 45 43 41 38 34 31 29 27 25 22 19 22 19 18 17 16 10 10 5 9 14 6 15 13 17 18 25 28 37 38 39 42
64 65 63 58 56 56 54 54 52 50 52 52 51 49 47 44 42 38 35 32 30 29 26 21 17 17 19 18 18 8 1 8 5 9 1 7 11 15 15 22 21 32 36 36 36
56 65 66 62 60 58 56 55 55 53 52 53 53 53 51 48 46 42 39 38 34 31 29 27 25 21 19 16 19 13 8 11 8 13 7 3 9 12 14 20 20 17 36 34 34
50 57 67 67 63 62 59 57 56 57 55 54 55 54 55 53 51 46 44 44 40 37 34 31 28 26 23 23 21 22 17 12 8 12 13 8 13 15 11 15 22 16 24 30 34
50 52 59 69 68 66 64 61 59 57 58 58 56 57 56 53 56 52 49 47 44 42 42 38 34 32 29 27 29 26 26 21 9 9 12 17 14 12 14 14 15 21 21 25 30
48 50 53 60 70 71 69 67 65 63 60 61 60 60 58 58 57 56 54 52 51 47 47 42 41 38 35 31 32 31 30 28 27 27 22 19 18 14 16 14 14 16 19 20 28
45 49 53 54 62 73 73 71 69 68 64 62 61 63 62 61 59 59 57 56 55 53 52 48 46 45 43 42 35 35 33 27 30 30 27 20 17 15 16 13 11 13 18 16 26
43 45 49 54 57 62 71 74 74 70 69 68 66 64 64 63 62 62 62 61 60 59 55 53 52 50 45 42 41 37 37 30 29 27 31 31 24 22 18 15 13 16 14 14 20
42 44 45 49 53 56 62 68 75 75 74 73 71 69 69 65 66 67 65 62 63 62 62 62 62 58 53 50 48 45 40 39 28 26 22 30 31 29 25 22 18 15 15 14 14
44 44 45 46 48 51 54 58 64 70 76 78 76 74 74 71 71 70 69 68 67 64 62 64 65 62 60 58 55 53 49 46 46 42 36 33 29 32 30 29 25 21 18 17 16
46 48 48 49 49 49 51 55 58 63 66 69 74 78 81 80 78 74 73 72 71 69 69 66 62 61 62 62 62 58 56 54 52 51 46 36 29 35 33 28 30 28 26 23 21
38 46 49 51 53 55 55 54 56 59 61 64 67 67 71 75 80 81 79 77 76 74 73 70 67 69 67 62 62 59 59 57 54 57 54 51 54 41 38 42 38 37 34 32 26
32 35 43 50 53 55 56 58 58 59 61 62 64 66 66 68 72 76 81 83 82 80 77 74 75 75 72 68 65 60 60 60 58 56 58 57 55 49 47 48 45 44 41 37 31
38 37 38 40 45 52 56 58 59 62 62 63 64 64 65 67 68 72 75 81 85 86 85 79 79 77 75 72 71 66 66 65 60 58 58 56 54 54 54 52 50 50 46 41 33
43 44 44 44 44 46 49 52 56 61 60 63 63 66 67 69 70 71 74 77 82 86 88 86 85 83 78 75 76 73 73 72 69 66 59 59 54 51 49 48 47 43 43 41 32
37 41 45 48 50 52 53 52 52 53 55 56 61 64 68 71 74 74 75 75 77 81 86 90 91 89 83 84 81 77 80 78 76 70 64 62 60 57 51 53 49 43 40 38 33
32 35 39 42 46 51 55 57 57 56 59 59 62 63 66 69 73 75 79 76 78 79 82 86 94 93 93 89 87 82 81 79 79 75 66 68 65 63 57 58 52 50 43 38 36
28 38 40 41 42 44 46 48 50 52 54 59 62 64 68 71 74 77 81 82 81 81 81 86 85 92 95 95 93 90 87 85 78 73 71 74 67 68 67 61 55 50 51 45 41
29 29 37 44 44 45 44 43 43 44 47 49 52 57 61 68 71 76 83 88 84 85 85 87 85 92 94 94 98 93 94 87 87 80 77 73 72 73 69 62 59 54 53 51 45
35 33 32 40 45 46 44 42 42 43 44 45 47 50 53 57 63 69 77 90 86 90 92 89 88 90 91 95 96 98 93 94 91 87 82 73 74 73 67 66 63 59 56 57 50
34 33 33 35 39 42 41 41 40 41 42 42 43 45 47 51 56 62 72 80 81 89 91 93 94 91 93 97 96 97 98 97 96 91 86 80 76 75 73 70 69 66 61 60 55
38 34 33 32 33 37 36 39 38 37 40 41 43 45 46 48 50 54 59 73 77 79 79 89 96 94 95 95 95 98 97 100 103 96 92 88 82 81 78 76 74 70 64 61 58
37 32 34 31 31 32 34 35 35 38 40 43 46 47 49 50 51 54 57 62 71 75 73 73 87 95 97 100 98 98 98 100 100 98 95 92 87 87 84 81 77 76 61 57 55
31 28 31 29 29 31 32 34 37 35 41 45 46 47 49 52 53 54 57 57 63 62 74 66 73 91 100 107 108 108 102 99 99 95 94 92 93 98 93 83 77 85 66 56 37
19 25 26 27 29 31 32 36 38 40 36 44 47 50 53 54 56 58 58 58 58 61 60 66 66 81 97 107 115 110 105 99 99 96 96 95 101 101 98 92 90 85 54 63 54
14 14 20 26 29 34 35 41 43 45 44 46 51 56 57 58 59 61 61 61 58 58 55 57 59 78 88 100 111 112 109 104 101 94 94 98 101 107 103 97 89 85 48 46 52
23 23 26 29 32 35 40 43 44 47 52 52 56 60 61 62 62 63 66 66 57 49 55 46 49 67 77 99 108 111 111 111 104 98 101 98 100 106 104 94 88 81 70 65 59
Wind_Direction
208 208 208 209 209 210 210 210 209 208 206 202 201 197 196 196 195 193 196 195 189 195 203 180 168 164 167 155 145 106 65 84 340 311 5 348 344 4 24 29 44 35 31 36 35
213 211 209 211 212 211 211 212 213 210 208 206 205 202 197 199 200 199 198 198 195 198 202 199 188 179 177 175 156 139 337 229 284 280 204 345 337 356 29 35 33 39 33 31 33
215 215 214 213 214 216 214 213 214 213 212 211 210 209 204 203 204 202 203 203 201 204 205 205 200 195 190 193 175 166 131 291 121 234 260 305 313 354 22 35 30 22 32 27 35
217 217 217 217 217 217 217 218 216 217 217 216 213 212 213 213 211 208 208 209 209 207 209 208 209 204 199 197 197 211 218 210 245 272 246 275 301 302 334 30 30 31 20 23 26
222 220 219 219 218 219 219 221 222 222 221 220 219 217 216 218 217 215 213 214 215 211 208 213 215 216 215 211 201 203 225 244 228 259 264 275 277 290 314 344 3 4 6 19 14
223 223 222 221 221 221 222 223 224 225 224 222 224 224 221 222 221 221 217 216 219 218 210 212 216 215 220 222 219 215 226 236 247 255 271 267 274 280 289 315 328 351 0 16 8
224 225 226 224 224 224 225 225 226 225 227 227 226 227 226 228 227 226 224 221 220 220 219 218 219 217 223 231 226 227 230 238 245 250 256 262 259 278 288 292 329 337 345 343 355
225 226 227 228 227 226 228 229 229 230 229 229 230 231 231 230 230 230 230 227 226 223 223 220 218 220 217 228 234 229 230 226 241 258 261 262 258 255 270 294 305 313 336 320 336
228 228 227 228 228 228 230 230 232 233 234 233 232 233 235 233 233 232 232 233 231 230 229 230 229 228 229 227 231 234 229 226 217 239 241 259 251 255 267 281 284 304 320 335 346
229 231 230 229 230 231 232 233 233 234 235 236 237 235 236 234 235 234 234 234 235 236 236 232 234 235 234 233 231 232 232 229 229 232 238 241 252 250 257 262 268 286 293 307 321
230 231 231 232 232 233 234 234 234 235 236 237 238 239 238 237 236 235 237 237 235 235 236 238 237 238 239 239 239 235 232 233 232 236 238 244 240 248 255 264 261 279 287 289 294
235 234 234 233 234 235 236 237 238 237 238 239 240 240 240 240 240 238 238 239 239 236 235 237 239 238 239 239 240 240 240 238 237 237 237 235 247 247 256 263 264 272 277 282 284
239 238 238 238 238 239 239 240 240 240 241 241 242 242 242 242 241 239 238 238 239 240 238 236 237 240 240 241 242 243 243 242 241 240 242 240 242 244 248 258 260 267 270 274 277
246 245 243 242 241 242 242 242 242 244 244 244 244 243 244 243 243 243 239 237 237 238 240 238 238 239 240 241 242 243 242 245 243 241 241 245 245 246 250 255 258 261 266 267 269
247 246 247 247 246 246 246 247 246 246 246 248 249 249 246 246 244 243 242 240 237 236 238 239 241 240 239 240 240 240 239 242 244 243 243 248 246 246 249 254 254 256 258 264 266
252 251 250 249 248 249 249 249 250 251 251 250 251 252 252 250 248 245 244 243 240 239 236 236 239 241 241 241 240 239 240 239 242 244 244 247 250 250 250 255 257 254 256 259 261
257 256 255 253 252 252 253 252 252 254 255 254 254 253 253 254 253 252 249 244 245 241 239 238 238 237 239 239 241 241 243 243 242 244 243 245 247 250 248 249 252 255 254 254 255
274 262 257 257 256 255 256 256 255 253 255 256 256 257 258 256 256 254 253 248 244 243 241 239 237 239 238 239 238 240 241 242 244 243 242 243 244 246 247 247 251 254 257 251 253
300 295 265 256 255 256 258 260 260 260 261 262 260 260 261 260 259 258 257 251 246 245 242 241 238 239 240 238 240 239 240 242 241 240 240 242 243 245 248 250 250 249 252 256 252
295 290 276 258 253 253 256 259 262 263 264 265 267 266 267 268 268 265 261 257 252 247 243 240 237 237 240 240 239 239 239 239 240 239 242 241 242 245 246 249 250 249 250 254 255
296 283 271 261 252 249 252 255 259 263 261 257 260 263 265 267 270 270 270 267 260 251 245 243 240 237 236 238 239 237 236 239 240 240 241 240 242 241 243 243 247 247 248 251 254
293 269 263 259 249 246 248 255 256 254 258 265 267 269 271 274 275 273 274 272 269 262 248 241 239 234 235 236 236 239 237 235 237 238 240 239 239 238 241 246 246 245 243 248 257
286 257 257 252 243 243 250 256 258 261 259 264 273 274 277 280 281 281 284 278 271 269 262 243 234 233 229 230 232 234 235 237 237 234 234 236 235 238 240 243 245 251 249 251 258
276 244 249 241 247 248 253 259 263 268 278 275 276 279 282 284 286 287 291 289 277 265 264 251 234 227 225 227 228 230 230 232 234 234 234 232 232 235 235 238 244 248 248 252 256
276 239 237 246 253 257 260 265 269 274 271 284 286 287 289 290 293 295 296 300 294 274 260 254 239 228 221 223 227 228 229 228 231 231 230 230 230 232 234 233 234 244 253 256 217
315 261 249 250 258 265 269 275 277 278 281 284 289 293 294 296 296 297 300 303 301 285 270 254 239 227 216 217 225 223 225 225 227 228 232 228 227 231 234 233 235 240 219 224 238
294 288 280 276 275 276 278 279 279 281 287 290 295 297 297 299 300 301 303 306 300 283 271 258 237 228 219 214 219 221 220 223 224 224 226 229 226 231 232 232 233 237 228 228 246
Height
10921 10927 10934 10941 10947 10953 10958 10963 10969 10975 10981 10986 10992 10997 11002 11007 11012 11016 11019 11023 11026 11028 11030 11034 11036 11039 11041 11044 11049 11048 11047 11043 11040 11035 11037 11041 11044 11043 11042 11038 11035 11034 11032 11029 11025
10916 10923 10929 10936 10942 10947 10953 10958 10964 10970 10976 10982 10987 10993 10998 11003 11008 11012 11016 11020 11024 11026 11029 11032 11035 11038 11041 11044 11050 11050 11044 11042 11041 11040 11038 11043 11044 11044 11044 11042 11040 11039 11036 11034 11031
10910 10917 10924 10931 10937 10942 10948 10953 10959 10964 10970 10976 10982 10987 10993 10999 11002 11008 11011 11016 11021 11023 11027 11030 11032 11035 11039 11044 11050 11050 11043 11036 11048 11041 11042 11041 11044 11044 11044 11043 11042 11041 11039 11038 11035
10903 10910 10917 10924 10930 10936 10942 10947 10952 10958 10964 10969 10975 10981 10987 10992 10996 11003 11007 11010 11016 11020 11024 11026 11030 11033 11036 11042 11045 11040 11034 11034 11050 11040 11041 11041 11045 11045 11045 11045 11043 11043 11043 11041 11038
10897 10903 10909 10915 10922 10929 10934 10940 10946 10952 10957 10962 10968 10974 10981 10986 10990 10997 11002 11006 11010 11015 11019 11023 11025 11028 11032 11037 11043 11042 11033 11032 11040 11038 11037 11041 11046 11047 11046 11046 11046 11045 11045 11043 11041
10891 10896 10901 10907 10914 10920 10926 10932 10938 10943 10949 10955 10960 10966 10972 10976 10984 10989 10995 11000 11004 11009 11013 11017 11020 11024 11027 11031 11035 11040 11038 11038 11037 11037 11040 11045 11046 11046 11045 11045 11047 11046 11046 11045 11043
10884 10888 10893 10899 10905 10911 10917 10922 10928 10934 10941 10946 10951 10956 10963 10966 10975 10980 10987 10992 10996 11001 11007 11011 11013 11018 11022 11023 11030 11034 11037 11040 11038 11040 11041 11042 11045 11044 11042 11045 11045 11045 11046 11046 11044
10876 10881 10886 10890 10895 10901 10907 10912 10917 10924 10931 10937 10942 10948 10952 10959 10966 10971 10975 10981 10987 10993 10999 11004 11006 11008 11015 11018 11021 11028 11032 11036 11037 11038 11036 11037 11040 11041 11041 11043 11044 11044 11045 11047 11046
10870 10874 10878 10882 10887 10891 10896 10902 10908 10914 10920 10925 10932 10938 10941 10950 10952 10957 10964 10971 10977 10982 10989 10995 10996 11001 11008 11011 11013 11019 11023 11030 11027 11031 11028 11031 11034 11037 11039 11041 11043 11043 11043 11046 11047
10864 10867 10871 10874 10878 10883 10887 10891 10896 10901 10906 10912 10918 10926 10928 10935 10939 10946 10952 10958 10965 10971 10977 10980 10985 10993 10998 11001 11002 11008 11014 11019 11022 11023 11022 11027 11030 11031 11034 11037 11040 11041 11043 11044 11046
10854 10858 10862 10866 10870 10874 10877 10879 10884 10889 10892 10897 10903 10910 10914 10918 10924 10934 10940 10946 10952 10959 10961 10967 10978 10983 10982 10987 10990 10999 11005 11009 11012 11015 11020 11021 11021 11027 11030 11033 11034 11037 11039 11042 11043
10845 10848 10852 10856 10859 10861 10866 10871 10875 10878 10881 10885 10889 10897 10900 10905 10912 10920 10927 10932 10938 10943 10949 10957 10965 10962 10967 10975 10981 10989 10992 10999 11004 11004 11009 11015 11013 11023 11023 11026 11030 11033 11036 11038 11040
10838 10840 10842 10846 10850 10853 10857 10859 10863 10867 10869 10873 10877 10882 10886 10891 10895 10902 10908 10914 10921 10928 10935 10945 10945 10947 10957 10964 10969 10979 10982 10987 10991 10995 10998 11004 11007 11013 11018 11019 11024 11026 11030 11034 11036
10830 10832 10834 10836 10839 10841 10844 10846 10851 10853 10858 10861 10864 10868 10871 10877 10878 10883 10890 10895 10902 10910 10916 10930 10928 10935 10942 10951 10956 10964 10968 10971 10980 10983 10986 10992 11000 11008 11010 11012 11017 11020 11023 11027 11032
10820 10822 10824 10827 10829 10830 10832 10835 10839 10841 10847 10848 10852 10852 10857 10859 10864 10867 10871 10876 10882 10890 10899 10910 10911 10917 10928 10936 10939 10949 10950 10953 10961 10967 10978 10982 10993 10999 11002 11003 11008 11013 11017 11020 11025
10809 10811 10813 10815 10817 10818 10820 10824 10826 10830 10832 10837 10837 10838 10839 10842 10844 10850 10854 10859 10865 10872 10880 10888 10893 10900 10913 10916 10923 10930 10931 10940 10942 10957 10970 10974 10979 10985 10995 10993 10998 11005 11009 11013 11017
10801 10802 10802 10803 10804 10805 10806 10810 10815 10819 10818 10822 10821 10822 10824 10824 10826 10831 10834 10842 10847 10854 10861 10867 10872 10881 10887 10897 10905 10914 10916 10925 10931 10941 10961 10958 10965 10969 10980 10983 10991 10993 10999 11005 11009
10791 10791 10791 10792 10792 10792 10793 10797 10800 10801 10801 10802 10805 10805 10805 10807 10808 10809 10811 10818 10826 10832 10842 10847 10858 10858 10867 10876 10886 10892 10898 10907 10919 10930 10941 10940 10953 10957 10959 10971 10981 10986 10985 10993 11000
10782 10780 10778 10779 10780 10781 10783 10785 10785 10787 10786 10786 10787 10788 10786 10785 10788 10788 10787 10793 10804 10808 10819 10824 10840 10840 10843 10860 10863 10879 10877 10898 10898 10909 10914 10926 10933 10936 10947 10958 10966 10975 10977 10978 10989
10771 10769 10766 10766 10767 10769 10771 10772 10772 10774 10773 10772 10772 10770 10771 10768 10768 10767 10764 10764 10780 10781 10788 10799 10815 10817 10830 10832 10840 10849 10871 10869 10877 10889 10901 10914 10918 10925 10939 10945 10953 10961 10968 10970 10977
10758 10755 10754 10753 10754 10756 10760 10760 10763 10760 10760 10761 10759 10757 10757 10755 10752 10747 10741 10741 10748 10747 10761 10774 10785 10798 10803 10806 10822 10832 10844 10852 10859 10874 10887 10899 10907 10911 10917 10928 10934 10945 10956 10959 10966
10745 10743 10743 10742 10743 10746 10749 10748 10750 10751 10749 10746 10745 10744 10742 10739 10736 10730 10723 10715 10719 10716 10729 10740 10755 10771 10777 10787 10797 10805 10822 10829 10833 10854 10867 10881 10894 10894 10899 10908 10916 10929 10943 10951 10956
10729 10730 10729 10731 10734 10736 10738 10738 10738 10738 10738 10735 10731 10729 10725 10722 10720 10710 10702 10695 10690 10692 10695 10706 10720 10736 10751 10756 10768 10775 10789 10803 10813 10831 10846 10861 10876 10879 10884 10891 10903 10905 10936 10946 10953
10714 10718 10720 10722 10725 10726 10728 10728 10727 10728 10722 10720 10717 10713 10709 10703 10699 10693 10682 10672 10661 10668 10661 10670 10684 10697 10714 10720 10728 10737 10758 10776 10790 10811 10828 10844 10848 10848 10862 10883 10892 10891 10920 10933 10939
10706 10709 10712 10715 10717 10717 10718 10716 10715 10713 10714 10705 10701 10696 10690 10685 10678 10670 10663 10652 10637 10634 10636 10638 10652 10665 10684 10686 10690 10716 10738 10754 10765 10787 10798 10820 10820 10826 10843 10859 10866 10881 10915 10916 10949
10708 10708 10708 10709 10710 10708 10707 10704 10702 10698 10695 10692 10685 10677 10672 10665 10658 10649 10640 10631 10621 10606 10607 10612 10624 10629 10655 10666 10672 10691 10712 10730 10742 10768 10784 10793 10798 10796 10817 10843 10864 10874 10905 10901 10906
10705 10705 10703 10702 10700 10698 10695 10692 10689 10685 10678 10675 10667 10659 10652 10644 10635 10626 10617 10607 10600 10591 10580 10590 10600 10607 10634 10632 10641 10666 10685 10700 10722 10743 10751 10770 10774 10775 10795 10829 10850 10859 10885 10903 10901